Location: Newark
(44.1667°N, 8.2500°E)
Time: 17:00:25
(UTC+00:00)

Envisat - Pass Details

Date: 20 November 2019
Orbit: 764 x 766 km, 98.1° (Epoch: 05 December)

Event Time Altitude Azimuth Distance (km) Brightness Sun altitude
Rises 16:38:34 0° 142° (SE) 3,221 6.0 -7.8°
Reaches altitude 10° 16:41:00 10° 135° (SE) 2,299 5.2 -8.2°
Maximum altitude 16:45:38 38° 68° (ENE) 1,168 3.5 -9.0°
Drops below altitude 10° 16:50:18 10° 2° (N) 2,312 5.3 -9.8°
Sets 16:52:44 0° 355° (N) 3,242 6.1 -10.2°
